Home > Weather > Germany > Pirmasens > Past weeks

Flag for Germany Weather past 2 weeks in Pirmasens, Rhineland-Palatinate, Germany

51 °F


Feels Like: 46 °F
Forecast: 36 / 47 °F
Wind: 13 mph from West

Location: Ramstein

Current Time: Dec 1, 2015 at 5:42:33 PM

Latest Report: Dec 1, 2015 at 4:58 PM

Visibility: N/A

Pressure: 30.37 "Hg

Humidity: 93%

Dew point: 49 °F

Location of PirmasensLocation

Historic Weather in Pirmasens — Graph


Pirmasens temperature yesterday

Maximum temperature yesterday: 52 °F (at 3:58 PM)
Minimum temperature yesterday: 48 °F (at 6:03 AM)
Average temperature yesterday: 50 °F

Past Weeks' High & Low Weather Summary

High59 °F (Nov 18, 1:58 AM)100% (Nov 17, 3:04 AM)30.36 "Hg (Nov 17, 3:04 AM)
Low25 °F (Nov 24, 1:58 AM)58% (Nov 18, 7:58 AM)29.40 "Hg (Nov 21, 12:03 PM)
Average42 °F89%29.98 "Hg
* Reported Nov 16 3:58 PM — Dec 1 3:58 PM, Pirmasens, Weather by CustomWeather, © 2015

Note: Actual official high and low records may vary slightly from our data, if they occured in-between our weather recording intervals... More about our weather records


Pirmasens weather history for previous 24 hours

Time TempWeatherWind HumidityBarometerVisibility
3:58 PM
Tue, Dec 1
51 °FOvercast.13 mph92%30.36 "HgN/A
3:00 PM50 °FLow clouds.16 mph100%30.33 "HgN/A
1:58 PM50 °FFog.12 mph99%30.33 "Hg5 mi
1:03 PM50 °FOvercast.16 mph100%30.30 "HgN/A
12:00 PM50 °FFog.12 mph100%30.30 "Hg5 mi
10:58 AM50 °FOvercast.14 mph96%30.31 "HgN/A
9:58 AM49 °FFog.10 mph98%30.29 "Hg6 mi
8:58 AM49 °FLight rain. Mostly cloudy.10 mph98%30.28 "HgN/A
8:03 AM48 °FLight rain. Fog.14 mph100%30.24 "Hg4 mi
7:58 AM49 °FLight rain. Fog.13 mph99%30.26 "Hg5 mi
6:58 AM48 °FLight rain. Overcast.16 mph100%30.24 "HgN/A
6:04 AM48 °FLight rain. Overcast.17 mph100%30.19 "HgN/A
5:58 AM48 °FLight rain. Mostly cloudy.17 mph100%30.21 "HgN/A
4:58 AM48 °FLight rain. Mostly cloudy.17 mph96%30.21 "HgN/A
3:59 AM48 °FLight rain. Mostly cloudy.17 mph94%30.18 "HgN/A
2:59 AM48 °FLight rain. Fog.21 mph100%30.17 "Hg6 mi
2:58 AM48 °FLight rain. Fog.22 mph100%30.19 "Hg6 mi
2:04 AM48 °FLight rain. Fog.17 mph100%30.15 "Hg5 mi
1:58 AM48 °FLight rain. Fog.20 mph100%30.17 "Hg5 mi
12:58 AM49 °FLight rain. Fog.18 mph95%30.17 "Hg6 mi
11:58 PM
Mon, Nov 30
49 °FLight rain. Fog.16 mph93%30.16 "Hg4 mi
10:59 PM48 °FLight rain. Overcast.12 mph94%30.13 "HgN/A
10:58 PM48 °FLight rain. Fog.14 mph94%30.15 "HgN/A
9:58 PM51 °FLight rain. Overcast.20 mph73%30.14 "HgN/A
8:58 PM51 °FLight rain. Overcast.23 mph73%30.11 "HgN/A
8:01 PM52 °FMostly cloudy.16 mph72%30.09 "HgN/A
6:58 PM51 °FOvercast.18 mph73%30.12 "HgN/A
5:58 PM51 °FPassing clouds.16 mph78%30.12 "HgN/A
5:00 PM50 °FLight rain. Overcast.18 mph82%30.12 "HgN/A
Weather by CustomWeather, © 2015

See weather overviewHow to use our weather pages